< < Back
Terminal Aerodrome Forecast


Current Version              Previous Versions:   1  2  3  4  5  6  7  8  9  

Terminal Aerodrome Forecast

558
FTUS42 KJAX 271200 AAB
TAFJAX
TAF AMD
KJAX 271200Z 2712/2812 34006KT 3SM BR SCT003
     FM271300 32006KT P6SM SCT035
     FM271900 11008KT P6SM SCT050
     FM280000 VRB04KT P6SM FEW025=

Latest METAR

538
SAUS80 KWBC 271300
MTRJAX
METAR KJAX 271256Z 31004KT 9SM SCT004 BKN250 22/22 A2994 RMK AO2 SLP138
T02220222


USA.gov is the U.S. government's official web portal to all federal, state and local government web resources and services.